Claresholm, Alberta

1:46 AM MST on January 24, 2018 (GMT -0700)
Claresholm

Weather History for CWDK - October, 2013

Change the Weather History Date:

Friday, October 25, 2013

  Actual Average Record
Temperature  
Mean Temperature 47 °F -  
Max Temperature 61 °F - - ()
Min Temperature 33 °F - - ()
Degree Days  
Heating Degree Days 18    
Moisture  
Dew Point 30 °F    
Average Humidity 54    
Maximum Humidity 85    
Minimum Humidity 23    
Precipitation  
Precipitation 2.60 in - - ()
Sea Level Pressure  
Sea Level Pressure 30.21 in    
Wind  
Wind Speed 5 mph ()    
Max Wind Speed 9 mph    
Max Gust Speed -    
T = Trace of Precipitation, MM = Missing Value Source: Averaged Metar Reports

Daily Weather History Graph

Daily Weather History Graph

Search for Another Location

Airport or City:

Trip Planner

Search our weather history database for the weather conditions in past years. The results will help you decide how hot, cold, wet, or windy it might be!

Date:

Astronomy

Oct. 25, 2013 Rise Set
Actual Time 8:13 AM MDT 6:23 PM MDT
Civil Twilight 7:39 AM MDT 6:56 PM MDT
Nautical Twilight 7:02 AM MDT 7:34 PM MDT
Astronomical Twilight 6:24 AM MDT 8:11 PM MDT
Moon 11:38 PM MDT (10/25) 2:05 PM MDT (10/25)
Length of Visible Light 11h 16m
Length of Day
10h 09m
Waning Gibbous, 62% of the Moon is Illuminated
Oct 25
Waning Gibbous
Oct 26
Last Quarter
Nov 3
New
Nov 9
First Quarter
Nov 17
Full

Hourly Weather History & Observations

Time (MDT) Temp. Windchill Dew Point Humidity Pressure Visibility Wind Dir Wind Speed Gust Speed Precip Events Conditions
12:00 AM 47 °F - 31 °F 41% 29.99 in - North 6.9 mph - -  
12:00 AM 47.1 °F - 30.7 °F 53% 29.99 in - North 6.9 mph - N/A   Unknown
1:00 AM 44.1 °F 42.5 °F 30.7 °F 59% 30.01 in - NNW 3.5 mph - N/A   Unknown
2:00 AM 38.5 °F 33.4 °F 28.0 °F 66% 30.04 in - NNW 6.9 mph - N/A   Unknown
3:00 AM 42.1 °F 38.4 °F 28.2 °F 58% 30.06 in - North 5.8 mph - N/A   Unknown
4:00 AM 39.2 °F 35.0 °F 25.7 °F 58% 30.10 in - North 5.8 mph - N/A   Unknown
5:00 AM 37.9 °F 33.5 °F 28.6 °F 69% 30.15 in - NNW 5.8 mph - 0.92 in   Unknown
6:00 AM 40 °F - 29 °F 55% 30.19 in - North 8.1 mph - -  
6:00 AM 40.1 °F 34.7 °F 29.5 °F 66% 30.19 in - North 8.1 mph - N/A   Unknown
7:00 AM 39.0 °F 33.4 °F 30.0 °F 70% 30.22 in - North 8.1 mph - N/A   Unknown
8:00 AM 36.1 °F 33.5 °F 29.8 °F 78% 30.25 in - NNW 3.5 mph - N/A   Unknown
9:00 AM 40.5 °F 36.5 °F 30.6 °F 68% 30.26 in - North 5.8 mph - 2.56 in   Unknown
10:00 AM 48.6 °F - 33.3 °F 56% 30.28 in - NW 1.2 mph - N/A   Unknown
11:00 AM 55.9 °F - 29.7 °F 37% 30.27 in - North 8.1 mph - N/A   Unknown
12:00 PM 57 °F - 30 °F 23% 30.29 in - NNE 9.2 mph - -  
12:00 PM 56.8 °F - 29.7 °F 35% 30.29 in - NNE 9.2 mph - N/A   Unknown
1:00 PM 58.6 °F - 29.7 °F 33% 30.29 in - NE 5.8 mph - N/A   Unknown
2:00 PM 60.1 °F - 27.3 °F 29% 30.26 in - East 3.5 mph - N/A   Unknown
3:00 PM 60.6 °F - 28.2 °F 29% 30.25 in - East 3.5 mph - N/A   Unknown
4:00 PM 60.8 °F - 29.3 °F 30% 30.25 in - SE 6.9 mph - N/A   Unknown
5:00 PM 59.0 °F - 31.1 °F 35% 30.25 in - SE 9.2 mph - N/A   Unknown
6:00 PM 53 °F - 32 °F 32% 30.26 in - ESE 5.8 mph - -  
6:00 PM 53.4 °F - 31.6 °F 44% 30.26 in - ESE 5.8 mph - N/A   Unknown
7:00 PM 43.0 °F 37.7 °F 32.9 °F 68% 30.30 in - East 9.2 mph - N/A   Unknown
8:00 PM 40.5 °F 38.4 °F 32.9 °F 74% 30.30 in - SSW 3.5 mph - N/A   Unknown
9:00 PM 39.0 °F - 31.8 °F 75% 30.28 in - Calm Calm - N/A   Unknown
10:00 PM 33.1 °F 30.0 °F 29.1 °F 85% 30.27 in - West 3.5 mph - N/A   Unknown
11:00 PM 36.7 °F 34.1 °F 31.6 °F 82% 30.27 in - North 3.5 mph - N/A   Unknown